User: anonymous   Login
Location: Unspecified
(0.0000°N, 0.0000°E)
Time: 12:51:37
(UTC+00:00)
Language:

Cubesat XI-IV - Orbit

View from above orbital plane
View from above orbital plane
View from above satellite
View from above satellite

Ground track
Ground track

The orbit data is extracted from the following two-line orbital elements,

1 27848U 03031J   17229.93895776 +.00000042 +00000-0 +38801-4 0  9991
2 27848 098.6992 238.3323 0009742 171.4549 188.6796 14.21665606732948
Epoch (UTC): 17 August 2017 22:32:05
Eccentricity: 0.0009742
inclination: 98.6992°
perigee height: 813 km
apogee height: 827 km
right ascension of ascending node: 238.3323°
argument of perigee: 171.4549°
revolutions per day: 14.21665606
mean anomaly at epoch: 188.6796°
orbit number at epoch: 73294

The dashed part of the orbit path shows where the satellite is in the earth's shadow,  

DLR